TimeEST,TemperatureF,Dew PointF,Humidity,Sea Level PressureIn,VisibilityMPH,Wind Direction,Wind SpeedMPH,Gust SpeedMPH,PrecipitationIn,Events,Conditions,WindDirDegrees,DateUTC
12:29 AM,-20.9,-27.9,70,30.31,10.0,Calm,Calm,-,N/A,,Partly Cloudy,0,2014-01-04 05:29:00
12:52 AM,-22.0,-27.9,74,30.43,10.0,Calm,Calm,-,N/A,,Clear,0,2014-01-04 05:52:00
1:52 AM,-20.9,-27.9,70,30.45,10.0,Calm,Calm,-,N/A,,Clear,0,2014-01-04 06:52:00
2:13 AM,-22.0,-27.0,77,30.34,10.0,Calm,Calm,-,N/A,,Scattered Clouds,0,2014-01-04 07:13:00
2:52 AM,-20.9,-27.9,70,30.44,10.0,Calm,Calm,-,N/A,,Clear,0,2014-01-04 07:52:00
3:52 AM,-22.0,-27.9,74,30.43,10.0,Calm,Calm,-,N/A,,Clear,0,2014-01-04 08:52:00
4:52 AM,-20.0,-26.0,74,30.42,10.0,Calm,Calm,-,N/A,,Clear,0,2014-01-04 09:52:00
5:52 AM,-18.0,-26.0,67,30.43,10.0,Calm,Calm,-,N/A,,Clear,0,2014-01-04 10:52:00
6:52 AM,-16.1,-20.9,79,30.43,10.0,Calm,Calm,-,N/A,,Clear,0,2014-01-04 11:52:00
7:52 AM,-15.0,-20.9,75,30.45,10.0,Calm,Calm,-,N/A,,Partly Cloudy,0,2014-01-04 12:52:00
8:03 AM,-15.0,-20.9,75,30.33,10.0,Calm,Calm,-,N/A,,Mostly Cloudy,0,2014-01-04 13:03:00
8:12 AM,-15.0,-20.9,75,30.33,10.0,Calm,Calm,-,N/A,,Mostly Cloudy,0,2014-01-04 13:12:00
8:22 AM,-14.1,-20.0,75,30.33,10.0,Calm,Calm,-,N/A,,Mostly Cloudy,0,2014-01-04 13:22:00
8:52 AM,-13.0,-18.0,78,30.46,10.0,Calm,Calm,-,N/A,,Overcast,0,2014-01-04 13:52:00
9:52 AM,-6.0,-11.0,79,30.43,10.0,Calm,Calm,-,N/A,,Clear,0,2014-01-04 14:52:00
10:09 AM,-4.0,-8.0,83,30.29,10.0,Calm,Calm,-,N/A,,Partly Cloudy,0,2014-01-04 15:09:00
10:52 AM,-0.0,-11.0,60,30.37,10.0,WNW,3.5,-,N/A,,Clear,290,2014-01-04 15:52:00
11:52 AM,5.0,-7.1,58,30.30,10.0,Calm,Calm,-,N/A,,Scattered Clouds,0,2014-01-04 16:52:00
12:52 PM,9.0,-2.0,61,30.25,10.0,Calm,Calm,-,N/A,,Clear,0,2014-01-04 17:52:00
1:52 PM,12.0,1.0,61,30.23,10.0,WNW,5.8,-,N/A,,Clear,290,2014-01-04 18:52:00
2:52 PM,10.9,-0.0,61,30.23,10.0,WNW,4.6,-,N/A,,Clear,290,2014-01-04 19:52:00
3:52 PM,10.0,-0.0,64,30.21,10.0,Calm,Calm,-,N/A,,Clear,0,2014-01-04 20:52:00
4:52 PM,8.1,1.0,73,30.21,10.0,Calm,Calm,-,N/A,,Clear,0,2014-01-04 21:52:00
5:52 PM,9.0,3.9,80,30.21,10.0,Calm,Calm,-,N/A,,Overcast,0,2014-01-04 22:52:00
6:52 PM,7.0,1.9,80,30.21,10.0,Calm,Calm,-,N/A,,Clear,0,2014-01-04 23:52:00
7:52 PM,5.0,-0.0,80,30.21,10.0,Calm,Calm,-,N/A,,Clear,0,2014-01-05 00:52:00
8:52 PM,5.0,-0.0,80,30.21,10.0,Calm,Calm,-,N/A,,Overcast,0,2014-01-05 01:52:00
9:52 PM,7.0,1.0,77,30.20,10.0,SSE,3.5,-,N/A,,Overcast,160,2014-01-05 02:52:00
10:52 PM,8.1,3.0,80,30.20,10.0,Calm,Calm,-,N/A,,Overcast,0,2014-01-05 03:52:00
11:52 PM,5.0,1.0,84,30.21,10.0,Calm,Calm,-,N/A,,Partly Cloudy,0,2014-01-05 04:52:00